Location: Drummondville
(45.8830°N, 72.4830°W)
Time: 02:30:15
(UTC-04:00)

Vanguard 3 - All Passes

Search period start: 23 June 2018 00:00
Search period end: 03 July 2018 00:00
Orbit: 508 x 3264 km, 33.3° (Epoch: 22 June)

Date Brightness Start Highest point End Pass type
(mag) Time Alt. Az. Time Alt. Az. Time Alt. Az.
23 Jun - 03:21:18 10° SSW 03:25:12 21° SSE 03:30:39 10° ESE visible
23 Jun - 05:30:16 10° WSW 05:36:14 34° S 05:46:00 10° ESE daylight
23 Jun - 07:40:59 10° WSW 07:48:36 30° SSW 08:00:17 10° SE daylight
23 Jun - 09:55:11 10° WSW 10:01:47 16° SSW 10:09:54 10° S daylight
24 Jun - 02:10:59 10° SSE 02:12:13 11° SSE 02:13:33 10° SE visible
24 Jun - 04:17:47 10° SW 04:22:33 29° SSE 04:29:55 10° ESE visible
24 Jun - 06:27:44 10° WSW 06:34:13 32° S 06:44:35 10° SE daylight
24 Jun - 08:39:48 10° WSW 08:46:58 21° SSW 08:56:46 10° SSE daylight
25 Jun - 03:05:45 10° SSW 03:09:16 20° SSE 03:14:02 10° ESE visible
25 Jun - 05:14:54 10° WSW 05:20:15 31° S 05:28:44 10° ESE daylight
25 Jun - 07:25:47 10° WSW 07:32:24 25° SSW 07:42:11 10° SSE daylight
25 Jun - 09:41:59 10° SW 09:45:20 11° SSW 09:49:05 10° SSW daylight
26 Jun - 01:55:06 10° SSE 01:56:15 11° SSE 01:57:30 10° SE visible
26 Jun - 04:02:23 10° SW 04:06:40 26° S 04:13:01 10° ESE visible
26 Jun - 06:12:29 10° WSW 06:18:11 27° S 06:26:56 10° SE daylight
26 Jun - 08:25:11 10° WSW 08:30:42 16° SSW 08:37:46 10° S daylight
27 Jun - 02:50:15 10° SSW 02:53:25 19° SSE 02:57:32 10° ESE visible
27 Jun - 04:59:36 10° WSW 05:04:21 26° S 05:11:30 10° SE daylight
27 Jun - 07:10:49 10° WSW 07:16:18 20° SSW 07:23:55 10° SSE daylight
28 Jun - 01:39:14 10° S 01:40:22 11° SSE 01:41:35 10° SE visible
28 Jun - 03:47:02 10° SW 03:50:51 23° S 03:56:12 10° ESE visible
28 Jun - 05:57:23 10° WSW 06:02:14 22° S 06:09:15 10° SE daylight
28 Jun - 08:11:46 10° SW 08:14:31 11° SSW 08:17:38 10° S daylight
29 Jun - 02:34:48 10° SSW 02:37:37 18° SSE 02:41:08 10° SE visible
29 Jun - 04:44:25 10° SW 04:48:30 22° S 04:54:20 10° SE daylight
29 Jun - 06:56:18 10° SW 07:00:17 15° SSW 07:05:21 10° S daylight
30 Jun - 01:23:19 10° S 01:24:31 11° SSE 01:25:47 10° SE visible
30 Jun - 03:31:45 10° SW 03:35:04 20° S 03:39:29 10° SE visible
30 Jun - 05:42:30 10° SW 05:46:21 17° SSW 05:51:28 10° SSE daylight
01 Jul - 02:19:20 10° SSW 02:21:51 16° S 02:24:48 10° SE visible
01 Jul - 04:29:21 10° SW 04:32:42 18° S 04:37:08 10° SE daylight
02 Jul - 01:07:23 10° S 01:08:43 12° SSE 01:10:06 10° SE night (unlit)
02 Jul - 03:16:32 10° SW 03:19:19 17° S 03:22:47 10° SE visible
02 Jul - 05:28:11 10° SW 05:30:31 12° SSW 05:33:15 10° S daylight
